Regional Weather Roundup
Issued by NWS

Home | Current Version | Previous Version | Text Only | Print | Product List | Glossary Off
Versions: 1 2 3 4 5 6 7 8 9 10 11 12 13 14 15 16 17 18 19 20 21 22 23 24 25 26 27 28 29 30 31 32 33 34 35 36 37 38 39 40 41 42 43 44 45 46 47 48 49 50

328
ASUS43 KBIS 201702
RWRND

NORTH DAKOTA REGIONAL WEATHER ROUNDUP
NATIONAL WEATHER SERVICE BISMARCK ND
1200 PM CDT SUN AUG 20 2017

NOTE: "FAIR" INDICATES FEW OR NO CLOUDS BELOW 12,000 FEET WITH NO
SIGNIFICANT WEATHER AND/OR OBSTRUCTIONS TO VISIBILITY.


NDZ001>003-009>011-017-201800-
NORTHWEST NORTH DAKOTA

CITY           SKY/WX    TMP DP  RH WIND       PRES   REMARKS
WILLISTON      MOSUNNY   69  38  32 CALM      30.08F
MINOT          MOSUNNY   72  41  32 W8        30.05F
MINOT AFB      MOSUNNY   71  38  29 W7        30.05S
$$

NDZ018>021-031>035-040>046-201800-
SOUTHWEST NORTH DAKOTA

CITY           SKY/WX    TMP DP  RH WIND       PRES   REMARKS
BISMARCK       CLOUDY    68  47  46 N8        30.08S
DICKINSON      CLOUDY    63  46  54 SE3       30.10R
GARRISON         N/A     69  41  36 NW8       30.07S
HETTINGER ARPT CLOUDY    63  42  46 E14       30.08F
$$

NDZ004>008-012>016-024-026-027-054-201800-
NORTHEAST NORTH DAKOTA

CITY           SKY/WX    TMP DP  RH WIND       PRES   REMARKS
GRAND FORKS    MOSUNNY   75  48  38 N9        29.98R
GRND FRKS AFB  SUNNY     74  45  35 N10G20    30.00R
DEVILS LAKE    SUNNY     69  44  40 NW12G21   30.04R
$$

NDZ022-023-025-028>030-036>039-047>053-201800-
SOUTHEAST NORTH DAKOTA

CITY           SKY/WX    TMP DP  RH WIND       PRES   REMARKS
FARGO          CLOUDY    71  53  52 N12       29.98R
JAMESTOWN      CLOUDY    65  49  56 N9        30.03S
$$





USA.gov is the U.S. government's official web portal to all federal, state and local government web resources and services.